Year,Month,Day,Hour,Minute,Value (Times are PST for temperature in C)
2009,06,02,00,00,18.20
2009,06,02,00,01,18.20
2009,06,02,00,02,18.20
2009,06,02,00,03,18.20
2009,06,02,00,04,18.20
2009,06,02,00,05,18.20
2009,06,02,00,06,18.20
2009,06,02,00,07,18.20
2009,06,02,00,08,18.20
2009,06,02,00,09,18.20
2009,06,02,00,10,18.20
2009,06,02,00,11,18.20
2009,06,02,00,12,18.20
2009,06,02,00,13,18.20
2009,06,02,00,14,18.20
2009,06,02,00,15,18.20
2009,06,02,00,16,18.20
2009,06,02,00,17,18.20
2009,06,02,00,18,18.20
2009,06,02,00,19,18.20
2009,06,02,00,20,18.20
2009,06,02,00,21,18.10
2009,06,02,00,22,18.10
2009,06,02,00,23,18.00
2009,06,02,00,24,17.90
2009,06,02,00,25,17.90
2009,06,02,00,26,17.90
2009,06,02,00,27,17.90
2009,06,02,00,28,17.90
2009,06,02,00,29,17.80
2009,06,02,00,30,17.80
2009,06,02,00,31,17.80
2009,06,02,00,32,17.70
2009,06,02,00,33,17.70
2009,06,02,00,34,17.70
2009,06,02,00,35,17.70
2009,06,02,00,36,17.60
2009,06,02,00,37,17.60
2009,06,02,00,38,17.50
2009,06,02,00,39,17.50
2009,06,02,00,40,17.50
2009,06,02,00,41,17.50
2009,06,02,00,42,17.40
2009,06,02,00,43,17.40
2009,06,02,00,44,17.40
2009,06,02,00,45,17.30
2009,06,02,00,46,17.30
2009,06,02,00,47,17.30
2009,06,02,00,48,17.40
2009,06,02,00,49,17.40
2009,06,02,00,50,17.40
2009,06,02,00,51,17.50
2009,06,02,00,52,17.50
2009,06,02,00,53,17.50
2009,06,02,00,54,17.50
2009,06,02,00,55,17.40
2009,06,02,00,56,17.40
2009,06,02,00,57,17.40
2009,06,02,00,58,17.30
2009,06,02,00,59,17.30
2009,06,02,01,00,17.30
2009,06,02,01,01,17.30
2009,06,02,01,02,17.30
2009,06,02,01,03,17.20
2009,06,02,01,04,17.20
2009,06,02,01,05,17.10
2009,06,02,01,06,17.10
2009,06,02,01,07,17.00
2009,06,02,01,08,17.00
2009,06,02,01,09,16.90
2009,06,02,01,10,16.90
2009,06,02,01,11,16.90
2009,06,02,01,12,16.80
2009,06,02,01,13,16.80
2009,06,02,01,14,16.80
2009,06,02,01,15,16.70
2009,06,02,01,16,16.70
2009,06,02,01,17,16.70
2009,06,02,01,18,16.70
2009,06,02,01,19,16.60
2009,06,02,01,20,16.60
2009,06,02,01,21,16.60
2009,06,02,01,22,16.60
2009,06,02,01,23,16.60
2009,06,02,01,24,16.50
2009,06,02,01,25,16.40
2009,06,02,01,26,16.40
2009,06,02,01,27,16.40
2009,06,02,01,28,16.40
2009,06,02,01,29,16.40
2009,06,02,01,30,16.40
2009,06,02,01,31,16.40
2009,06,02,01,32,16.40
2009,06,02,01,33,16.40
2009,06,02,01,34,16.40
2009,06,02,01,35,16.40
2009,06,02,01,36,16.40
2009,06,02,01,37,16.40
2009,06,02,01,38,16.30
2009,06,02,01,39,16.30
2009,06,02,01,40,16.30
2009,06,02,01,41,16.30
2009,06,02,01,42,16.30
2009,06,02,01,43,16.30
2009,06,02,01,44,16.20
2009,06,02,01,45,16.20
2009,06,02,01,46,16.20
2009,06,02,01,47,16.20
2009,06,02,01,48,16.10
2009,06,02,01,49,16.10
2009,06,02,01,50,16.10
2009,06,02,01,51,16.10
2009,06,02,01,52,16.10
2009,06,02,01,53,15.90
2009,06,02,01,54,15.90
2009,06,02,01,55,15.90
2009,06,02,01,56,15.90
2009,06,02,01,57,15.80
2009,06,02,01,58,15.80
2009,06,02,01,59,15.80
2009,06,02,02,00,15.80
2009,06,02,02,01,15.80
2009,06,02,02,02,15.80
2009,06,02,02,03,15.80
2009,06,02,02,04,15.80
2009,06,02,02,05,15.70
2009,06,02,02,06,15.70
2009,06,02,02,07,15.70
2009,06,02,02,08,15.60
2009,06,02,02,09,15.60
2009,06,02,02,10,15.60
2009,06,02,02,11,15.60
2009,06,02,02,12,15.60
2009,06,02,02,13,15.60
2009,06,02,02,14,15.60
2009,06,02,02,15,15.60
2009,06,02,02,16,15.60
2009,06,02,02,17,15.60
2009,06,02,02,18,15.60
2009,06,02,02,19,15.60
2009,06,02,02,20,15.60
2009,06,02,02,21,15.60
2009,06,02,02,22,15.60
2009,06,02,02,23,15.60
2009,06,02,02,24,15.60
2009,06,02,02,25,15.60
2009,06,02,02,26,15.50
2009,06,02,02,27,15.50
2009,06,02,02,28,15.50
2009,06,02,02,29,15.50
2009,06,02,02,30,15.50
2009,06,02,02,31,15.50
2009,06,02,02,32,15.50
2009,06,02,02,33,15.50
2009,06,02,02,34,15.50
2009,06,02,02,35,15.50
2009,06,02,02,36,15.50
2009,06,02,02,37,15.50
2009,06,02,02,38,15.50
2009,06,02,02,39,15.50
2009,06,02,02,40,15.50
2009,06,02,02,41,15.50
2009,06,02,02,42,15.50
2009,06,02,02,43,15.50
2009,06,02,02,44,15.50
2009,06,02,02,45,15.50
2009,06,02,02,46,15.50
2009,06,02,02,47,15.50
2009,06,02,02,48,15.50
2009,06,02,02,49,15.50
2009,06,02,02,50,15.50
2009,06,02,02,51,15.50
2009,06,02,02,52,15.50
2009,06,02,02,53,15.50
2009,06,02,02,54,15.60
2009,06,02,02,55,15.60
2009,06,02,02,56,15.60
2009,06,02,02,57,15.60
2009,06,02,02,58,15.60
2009,06,02,02,59,15.50
2009,06,02,03,00,15.50
2009,06,02,03,01,15.50
2009,06,02,03,02,15.50
2009,06,02,03,03,15.50
2009,06,02,03,04,15.50
2009,06,02,03,05,15.50
2009,06,02,03,06,15.50
2009,06,02,03,07,15.50
2009,06,02,03,08,15.50
2009,06,02,03,09,15.50
2009,06,02,03,10,15.50
2009,06,02,03,11,15.40
2009,06,02,03,12,15.40
2009,06,02,03,13,15.40
2009,06,02,03,14,15.40
2009,06,02,03,15,15.40
2009,06,02,03,16,15.40
2009,06,02,03,17,15.40
2009,06,02,03,18,15.30
2009,06,02,03,19,15.30
2009,06,02,03,20,15.30
2009,06,02,03,21,15.30
2009,06,02,03,22,15.30
2009,06,02,03,23,15.30
2009,06,02,03,24,15.30
2009,06,02,03,25,15.30
2009,06,02,03,26,15.30
2009,06,02,03,27,15.30
2009,06,02,03,28,15.30
2009,06,02,03,29,15.30
2009,06,02,03,30,15.30
2009,06,02,03,31,15.30
2009,06,02,03,32,15.30
2009,06,02,03,33,15.30
2009,06,02,03,34,15.30
2009,06,02,03,35,15.30
2009,06,02,03,36,15.30
2009,06,02,03,37,15.20
2009,06,02,03,38,15.20
2009,06,02,03,39,15.20
2009,06,02,03,40,15.30
2009,06,02,03,41,15.30
2009,06,02,03,42,15.30
2009,06,02,03,43,15.30
2009,06,02,03,44,15.30
2009,06,02,03,45,15.30
2009,06,02,03,46,15.30
2009,06,02,03,47,15.30
2009,06,02,03,48,15.30
2009,06,02,03,49,15.20
2009,06,02,03,50,15.10
2009,06,02,03,51,15.00
2009,06,02,03,52,14.90
2009,06,02,03,53,14.80
2009,06,02,03,54,14.70
2009,06,02,03,55,14.70
2009,06,02,03,56,14.70
2009,06,02,03,57,14.60
2009,06,02,03,58,14.60
2009,06,02,03,59,14.60
2009,06,02,04,00,14.50
2009,06,02,04,01,14.50
2009,06,02,04,02,14.40
2009,06,02,04,03,14.40
2009,06,02,04,04,14.30
2009,06,02,04,05,14.30
2009,06,02,04,06,14.20
2009,06,02,04,07,14.10
2009,06,02,04,08,14.00
2009,06,02,04,09,14.00
2009,06,02,04,10,14.00
2009,06,02,04,11,13.90
2009,06,02,04,12,13.90
2009,06,02,04,13,13.90
2009,06,02,04,14,13.90
2009,06,02,04,15,14.00
2009,06,02,04,16,14.00
2009,06,02,04,17,14.10
2009,06,02,04,18,14.00
2009,06,02,04,19,14.00
2009,06,02,04,20,14.00
2009,06,02,04,21,14.00
2009,06,02,04,22,14.00
2009,06,02,04,23,14.00
2009,06,02,04,24,13.90
2009,06,02,04,25,13.90
2009,06,02,04,26,13.90
2009,06,02,04,27,13.90
2009,06,02,04,28,13.90
2009,06,02,04,29,13.90
2009,06,02,04,30,13.80
2009,06,02,04,31,13.80
2009,06,02,04,32,13.80
2009,06,02,04,33,13.80
2009,06,02,04,34,13.80
2009,06,02,04,35,13.80
2009,06,02,04,36,13.80
2009,06,02,04,37,13.80
2009,06,02,04,38,13.80
2009,06,02,04,39,13.80
2009,06,02,04,40,13.70
2009,06,02,04,41,13.70
2009,06,02,04,42,13.70
2009,06,02,04,43,13.70
2009,06,02,04,44,13.70
2009,06,02,04,45,13.70
2009,06,02,04,46,13.70
2009,06,02,04,47,13.70
2009,06,02,04,48,13.70
2009,06,02,04,49,13.60
2009,06,02,04,50,13.60
2009,06,02,04,51,13.60
2009,06,02,04,52,13.60
2009,06,02,04,53,13.60
2009,06,02,04,54,13.50
2009,06,02,04,55,13.50
2009,06,02,04,56,13.50
2009,06,02,04,57,13.50
2009,06,02,04,58,13.50
2009,06,02,04,59,13.50
2009,06,02,05,00,13.50
2009,06,02,05,01,13.50
2009,06,02,05,02,13.50
2009,06,02,05,03,13.50
2009,06,02,05,04,13.50
2009,06,02,05,05,13.50
2009,06,02,05,06,13.50
2009,06,02,05,07,13.50
2009,06,02,05,08,13.50
2009,06,02,05,09,13.50
2009,06,02,05,10,13.50
2009,06,02,05,11,13.50
2009,06,02,05,12,13.50
2009,06,02,05,13,13.50
2009,06,02,05,14,13.50
2009,06,02,05,15,13.50
2009,06,02,05,16,13.40
2009,06,02,05,17,13.40
2009,06,02,05,18,13.40
2009,06,02,05,19,13.40
2009,06,02,05,20,13.40
2009,06,02,05,21,13.40
2009,06,02,05,22,13.40
2009,06,02,05,23,13.30
2009,06,02,05,24,13.30
2009,06,02,05,25,13.30
2009,06,02,05,26,13.30
2009,06,02,05,27,13.30
2009,06,02,05,28,13.30
2009,06,02,05,29,13.30
2009,06,02,05,30,13.30
2009,06,02,05,31,13.40
2009,06,02,05,32,13.40
2009,06,02,05,33,13.50
2009,06,02,05,34,13.50
2009,06,02,05,35,13.60
2009,06,02,05,36,13.60
2009,06,02,05,37,13.70
2009,06,02,05,38,13.70
2009,06,02,05,39,13.70
2009,06,02,05,40,13.70
2009,06,02,05,41,13.70
2009,06,02,05,42,13.80
2009,06,02,05,43,13.80
2009,06,02,05,44,13.90
2009,06,02,05,45,13.90
2009,06,02,05,46,13.90
2009,06,02,05,47,14.00
2009,06,02,05,48,14.00
2009,06,02,05,49,14.00
2009,06,02,05,50,14.10
2009,06,02,05,51,14.10
2009,06,02,05,52,14.10
2009,06,02,05,53,14.20
2009,06,02,05,54,14.20
2009,06,02,05,55,14.20
2009,06,02,05,56,14.20
2009,06,02,05,57,14.40
2009,06,02,05,58,14.50
2009,06,02,05,59,14.60
2009,06,02,06,00,14.80
2009,06,02,06,01,14.80
2009,06,02,06,02,14.90
2009,06,02,06,03,15.00
2009,06,02,06,04,15.10
2009,06,02,06,05,15.20
2009,06,02,06,06,15.30
2009,06,02,06,07,15.40
2009,06,02,06,08,15.50
2009,06,02,06,09,15.60
2009,06,02,06,10,15.60
2009,06,02,06,11,15.60
2009,06,02,06,12,15.60
2009,06,02,06,13,15.70
2009,06,02,06,14,15.70
2009,06,02,06,15,15.70
2009,06,02,06,16,15.70
2009,06,02,06,17,15.80
2009,06,02,06,18,15.80
2009,06,02,06,19,15.80
2009,06,02,06,20,15.80
2009,06,02,06,21,15.80
2009,06,02,06,22,15.80
2009,06,02,06,23,15.80
2009,06,02,06,24,15.80
2009,06,02,06,25,15.80
2009,06,02,06,26,15.80
2009,06,02,06,27,15.80
2009,06,02,06,28,15.80
2009,06,02,06,29,15.80
2009,06,02,06,30,15.80
2009,06,02,06,31,15.80
2009,06,02,06,32,15.90
2009,06,02,06,33,15.90
2009,06,02,06,34,16.00
2009,06,02,06,35,16.10
2009,06,02,06,36,16.10
2009,06,02,06,37,16.10
2009,06,02,06,38,16.10
2009,06,02,06,39,16.10
2009,06,02,06,40,16.10
2009,06,02,06,41,16.10
2009,06,02,06,42,15.90
2009,06,02,06,43,15.90
2009,06,02,06,44,16.00
2009,06,02,06,45,16.10
2009,06,02,06,46,16.10
2009,06,02,06,47,16.20
2009,06,02,06,48,16.20
2009,06,02,06,49,16.30
2009,06,02,06,50,16.30
2009,06,02,06,51,16.40
2009,06,02,06,52,16.40
2009,06,02,06,53,16.40
2009,06,02,06,54,16.40
2009,06,02,06,55,16.50
2009,06,02,06,56,16.60
2009,06,02,06,57,16.60
2009,06,02,06,58,16.60
2009,06,02,06,59,16.60
2009,06,02,07,00,16.60
2009,06,02,07,01,16.60
2009,06,02,07,02,16.60
2009,06,02,07,03,16.60
2009,06,02,07,04,16.60
2009,06,02,07,05,16.60
2009,06,02,07,06,16.60
2009,06,02,07,07,16.60
2009,06,02,07,08,16.70
2009,06,02,07,09,16.70
2009,06,02,07,10,16.70
2009,06,02,07,11,16.60
2009,06,02,07,12,16.60
2009,06,02,07,13,16.60
2009,06,02,07,14,16.60
2009,06,02,07,15,16.60
2009,06,02,07,16,16.60
2009,06,02,07,17,16.60
2009,06,02,07,18,16.60
2009,06,02,07,19,16.60
2009,06,02,07,20,16.60
2009,06,02,07,21,16.60
2009,06,02,07,22,16.60
2009,06,02,07,23,16.60
2009,06,02,07,24,16.60
2009,06,02,07,25,16.60
2009,06,02,07,26,16.60
2009,06,02,07,27,16.60
2009,06,02,07,28,16.60
2009,06,02,07,29,16.60
2009,06,02,07,30,16.60
2009,06,02,07,31,16.60
2009,06,02,07,32,16.70
2009,06,02,07,33,16.70
2009,06,02,07,34,16.70
2009,06,02,07,35,16.70
2009,06,02,07,36,16.70
2009,06,02,07,37,16.80
2009,06,02,07,38,16.80
2009,06,02,07,39,16.90
2009,06,02,07,40,16.90
2009,06,02,07,41,16.90
2009,06,02,07,42,17.00
2009,06,02,07,43,17.00
2009,06,02,07,44,17.00
2009,06,02,07,45,17.10
2009,06,02,07,46,17.10
2009,06,02,07,47,17.20
2009,06,02,07,48,17.20
2009,06,02,07,49,17.30
2009,06,02,07,50,17.30
2009,06,02,07,51,17.30
2009,06,02,07,52,17.30
2009,06,02,07,53,17.40
2009,06,02,07,54,17.50
2009,06,02,07,55,17.50
2009,06,02,07,56,17.50
2009,06,02,07,57,17.60
2009,06,02,07,58,17.60
2009,06,02,07,59,17.70
2009,06,02,08,00,17.80
2009,06,02,08,01,17.80
2009,06,02,08,02,17.90
2009,06,02,08,03,17.90
2009,06,02,08,04,17.90
2009,06,02,08,05,17.90
2009,06,02,08,06,18.10
2009,06,02,08,07,18.10
2009,06,02,08,08,18.10
2009,06,02,08,09,18.10
2009,06,02,08,10,18.20
2009,06,02,08,11,18.20
2009,06,02,08,12,18.20
2009,06,02,08,13,18.20
2009,06,02,08,14,18.20
2009,06,02,08,15,18.20
2009,06,02,08,16,18.20
2009,06,02,08,17,18.20
2009,06,02,08,18,18.20
2009,06,02,08,19,18.30
2009,06,02,08,20,18.30
2009,06,02,08,21,18.30
2009,06,02,08,22,18.30
2009,06,02,08,23,18.30
2009,06,02,08,24,18.30
2009,06,02,08,25,18.30
2009,06,02,08,26,18.40
2009,06,02,08,27,18.40
2009,06,02,08,28,18.40
2009,06,02,08,29,18.40
2009,06,02,08,30,18.40
2009,06,02,08,31,18.40
2009,06,02,08,32,18.50
2009,06,02,08,33,18.50
2009,06,02,08,34,18.50
2009,06,02,08,35,18.50
2009,06,02,08,36,18.40
2009,06,02,08,37,18.40
2009,06,02,08,38,18.40
2009,06,02,08,39,18.40
2009,06,02,08,40,18.40
2009,06,02,08,41,18.40
2009,06,02,08,42,18.30
2009,06,02,08,43,18.30
2009,06,02,08,44,18.30
2009,06,02,08,45,18.30
2009,06,02,08,46,18.30
2009,06,02,08,47,18.30
2009,06,02,08,48,18.30
2009,06,02,08,49,18.30
2009,06,02,08,50,18.30
2009,06,02,08,51,18.30
2009,06,02,08,52,18.30
2009,06,02,08,53,18.40
2009,06,02,08,54,18.40
2009,06,02,08,55,18.50
2009,06,02,08,56,18.50
2009,06,02,08,57,18.60
2009,06,02,08,58,18.70
2009,06,02,08,59,18.70
2009,06,02,09,00,18.80
2009,06,02,09,01,18.90
2009,06,02,09,02,18.90
2009,06,02,09,03,18.90
2009,06,02,09,04,18.90
2009,06,02,09,05,18.90
2009,06,02,09,06,18.90
2009,06,02,09,07,18.90
2009,06,02,09,08,18.90
2009,06,02,09,09,19.00
2009,06,02,09,10,19.10
2009,06,02,09,11,19.10
2009,06,02,09,12,19.10
2009,06,02,09,13,19.20
2009,06,02,09,14,19.30
2009,06,02,09,15,19.30
2009,06,02,09,16,19.30
2009,06,02,09,17,19.30
2009,06,02,09,18,19.30
2009,06,02,09,19,19.30
2009,06,02,09,20,19.30
2009,06,02,09,21,19.30
2009,06,02,09,22,19.40
2009,06,02,09,23,19.40
2009,06,02,09,24,19.40
2009,06,02,09,25,19.50
2009,06,02,09,26,19.60
2009,06,02,09,27,19.60
2009,06,02,09,28,19.70
2009,06,02,09,29,19.80
2009,06,02,09,30,19.90
2009,06,02,09,31,20.00
2009,06,02,09,32,20.10
2009,06,02,09,33,20.20
2009,06,02,09,34,20.20
2009,06,02,09,35,20.20
2009,06,02,09,36,20.20
2009,06,02,09,37,20.20
2009,06,02,09,38,20.20
2009,06,02,09,39,20.30
2009,06,02,09,40,20.40
2009,06,02,09,41,20.50
2009,06,02,09,42,20.60
2009,06,02,09,43,20.70
2009,06,02,09,44,20.80
2009,06,02,09,45,20.90
2009,06,02,09,46,21.00
2009,06,02,09,47,21.00
2009,06,02,09,48,21.10
2009,06,02,09,49,21.20
2009,06,02,09,50,21.30
2009,06,02,09,51,21.30
2009,06,02,09,52,21.40
2009,06,02,09,53,21.40
2009,06,02,09,54,21.50
2009,06,02,09,55,21.60
2009,06,02,09,56,21.60
2009,06,02,09,57,21.60
2009,06,02,09,58,21.50
2009,06,02,09,59,21.60
2009,06,02,10,00,21.60
2009,06,02,10,01,21.60
2009,06,02,10,02,21.70
2009,06,02,10,03,21.80
2009,06,02,10,04,21.90
2009,06,02,10,05,21.90
2009,06,02,10,06,21.90
2009,06,02,10,07,22.00
2009,06,02,10,08,21.90
2009,06,02,10,09,22.00
2009,06,02,10,10,22.00
2009,06,02,10,11,22.20
2009,06,02,10,12,22.30
2009,06,02,10,13,22.30
2009,06,02,10,14,22.20
2009,06,02,10,15,22.20
2009,06,02,10,16,22.20
2009,06,02,10,17,22.30
2009,06,02,10,18,22.30
2009,06,02,10,19,22.40
2009,06,02,10,20,22.40
2009,06,02,10,21,22.40
2009,06,02,10,22,22.40
2009,06,02,10,23,22.40
2009,06,02,10,24,22.50
2009,06,02,10,25,22.50
2009,06,02,10,26,22.50
2009,06,02,10,27,22.50
2009,06,02,10,28,22.50
2009,06,02,10,29,22.60
2009,06,02,10,30,22.60
2009,06,02,10,31,22.70
2009,06,02,10,32,22.70
2009,06,02,10,33,22.80
2009,06,02,10,34,22.70
2009,06,02,10,35,22.70
2009,06,02,10,36,22.60
2009,06,02,10,37,22.50
2009,06,02,10,38,22.40
2009,06,02,10,39,22.30
2009,06,02,10,40,22.20
2009,06,02,10,41,22.30
2009,06,02,10,42,22.30
2009,06,02,10,43,22.40
2009,06,02,10,44,22.40
2009,06,02,10,45,22.30
2009,06,02,10,46,22.30
2009,06,02,10,47,22.30
2009,06,02,10,48,22.20
2009,06,02,10,49,22.20
2009,06,02,10,50,22.20
2009,06,02,10,51,22.20
2009,06,02,10,52,22.30
2009,06,02,10,53,22.30
2009,06,02,10,54,22.40
2009,06,02,10,55,22.40
2009,06,02,10,56,22.40
2009,06,02,10,57,22.50
2009,06,02,10,58,22.50
2009,06,02,10,59,22.60
2009,06,02,11,00,22.60
2009,06,02,11,01,22.60
2009,06,02,11,02,22.70
2009,06,02,11,03,22.70
2009,06,02,11,04,22.70
2009,06,02,11,05,22.70
2009,06,02,11,06,22.70
2009,06,02,11,07,22.70
2009,06,02,11,08,22.70
2009,06,02,11,09,22.70
2009,06,02,11,10,22.80
2009,06,02,11,11,22.90
2009,06,02,11,12,22.90
2009,06,02,11,13,23.10
2009,06,02,11,14,23.10
2009,06,02,11,15,23.10
2009,06,02,11,16,23.10
2009,06,02,11,17,23.00
2009,06,02,11,18,22.90
2009,06,02,11,19,22.90
2009,06,02,11,20,22.90
2009,06,02,11,21,22.90
2009,06,02,11,22,22.80
2009,06,02,11,23,22.80
2009,06,02,11,24,22.80
2009,06,02,11,25,22.80
2009,06,02,11,26,22.80
2009,06,02,11,27,22.80
2009,06,02,11,28,22.80
2009,06,02,11,29,22.90
2009,06,02,11,30,22.90
2009,06,02,11,31,22.90
2009,06,02,11,32,23.10
2009,06,02,11,33,23.20
2009,06,02,11,34,23.20
2009,06,02,11,35,23.10
2009,06,02,11,36,23.00
2009,06,02,11,37,22.90
2009,06,02,11,38,22.90
2009,06,02,11,39,23.00
2009,06,02,11,40,23.10
2009,06,02,11,41,23.10
2009,06,02,11,42,23.10
2009,06,02,11,43,23.20
2009,06,02,11,44,23.20
2009,06,02,11,45,23.20
2009,06,02,11,46,23.30
2009,06,02,11,47,23.30
2009,06,02,11,48,23.30
2009,06,02,11,49,23.30
2009,06,02,11,50,23.30
2009,06,02,11,51,23.30
2009,06,02,11,52,23.40
2009,06,02,11,53,23.40
2009,06,02,11,54,23.60
2009,06,02,11,55,23.70
2009,06,02,11,56,23.70
2009,06,02,11,57,23.90
2009,06,02,11,58,23.90
2009,06,02,11,59,24.10
2009,06,02,12,00,24.10
2009,06,02,12,01,24.00
2009,06,02,12,02,23.90
2009,06,02,12,03,24.00
2009,06,02,12,04,24.10
2009,06,02,12,05,24.10
2009,06,02,12,06,24.20
2009,06,02,12,07,24.20
2009,06,02,12,08,24.20
2009,06,02,12,09,24.20
2009,06,02,12,10,24.20
2009,06,02,12,11,24.30
2009,06,02,12,12,24.40
2009,06,02,12,13,24.50
2009,06,02,12,14,24.50
2009,06,02,12,15,24.50
2009,06,02,12,16,24.50
2009,06,02,12,17,24.50
2009,06,02,12,18,24.50
2009,06,02,12,19,24.60
2009,06,02,12,20,24.60
2009,06,02,12,21,24.60
2009,06,02,12,22,24.70
2009,06,02,12,23,24.80
2009,06,02,12,24,24.80
2009,06,02,12,25,24.70
2009,06,02,12,26,24.60
2009,06,02,12,27,24.50
2009,06,02,12,28,24.50
2009,06,02,12,29,24.60
2009,06,02,12,30,24.70
2009,06,02,12,31,24.80
2009,06,02,12,32,24.80
2009,06,02,12,33,24.80
2009,06,02,12,34,24.80
2009,06,02,12,35,24.70
2009,06,02,12,36,24.70
2009,06,02,12,37,24.70
2009,06,02,12,38,24.70
2009,06,02,12,39,24.70
2009,06,02,12,40,24.70
2009,06,02,12,41,24.60
2009,06,02,12,42,24.50
2009,06,02,12,43,24.50
2009,06,02,12,44,24.50
2009,06,02,12,45,24.60
2009,06,02,12,46,24.60
2009,06,02,12,47,24.60
2009,06,02,12,48,24.60
2009,06,02,12,49,24.70
2009,06,02,12,50,24.80
2009,06,02,12,51,24.90
2009,06,02,12,52,24.90
2009,06,02,12,53,25.00
2009,06,02,12,54,25.10
2009,06,02,12,55,25.00
2009,06,02,12,56,25.00
2009,06,02,12,57,24.90
2009,06,02,12,58,24.90
2009,06,02,12,59,24.90
2009,06,02,13,00,24.90
2009,06,02,13,01,24.90
2009,06,02,13,02,24.80
2009,06,02,13,03,24.80
2009,06,02,13,04,24.70
2009,06,02,13,05,24.70
2009,06,02,13,06,24.70
2009,06,02,13,07,24.70
2009,06,02,13,08,24.70
2009,06,02,13,09,24.90
2009,06,02,13,10,24.90
2009,06,02,13,11,25.00
2009,06,02,13,12,25.10
2009,06,02,13,13,25.20
2009,06,02,13,14,25.20
2009,06,02,13,15,25.20
2009,06,02,13,16,25.30
2009,06,02,13,17,25.40
2009,06,02,13,18,25.30
2009,06,02,13,19,25.40
2009,06,02,13,20,25.40
2009,06,02,13,21,25.50
2009,06,02,13,22,25.60
2009,06,02,13,23,25.60
2009,06,02,13,24,25.60
2009,06,02,13,25,25.60
2009,06,02,13,26,25.70
2009,06,02,13,27,25.80
2009,06,02,13,28,25.90
2009,06,02,13,29,25.90
2009,06,02,13,30,25.90
2009,06,02,13,31,25.80
2009,06,02,13,32,25.70
2009,06,02,13,33,25.60
2009,06,02,13,34,25.70
2009,06,02,13,35,25.70
2009,06,02,13,36,25.60
2009,06,02,13,37,25.60
2009,06,02,13,38,25.50
2009,06,02,13,39,25.50
2009,06,02,13,40,25.50
2009,06,02,13,41,25.50
2009,06,02,13,42,25.50
2009,06,02,13,43,25.60
2009,06,02,13,44,25.70
2009,06,02,13,45,25.80
2009,06,02,13,46,25.90
2009,06,02,13,47,26.00
2009,06,02,13,48,26.10
2009,06,02,13,49,26.10
2009,06,02,13,50,26.10
2009,06,02,13,51,26.20
2009,06,02,13,52,26.30
2009,06,02,13,53,26.30
2009,06,02,13,54,26.30
2009,06,02,13,55,26.30
2009,06,02,13,56,26.40
2009,06,02,13,57,26.50
2009,06,02,13,58,26.60
2009,06,02,13,59,26.60
2009,06,02,14,00,26.60
2009,06,02,14,01,26.60
2009,06,02,14,02,26.60
2009,06,02,14,03,26.60
2009,06,02,14,04,26.60
2009,06,02,14,05,26.60
2009,06,02,14,06,26.60
2009,06,02,14,07,26.60
2009,06,02,14,08,26.70
2009,06,02,14,09,26.70
2009,06,02,14,10,26.60
2009,06,02,14,11,26.70
2009,06,02,14,12,26.70
2009,06,02,14,13,26.80
2009,06,02,14,14,26.90
2009,06,02,14,15,26.90
2009,06,02,14,16,26.90
2009,06,02,14,17,26.90
2009,06,02,14,18,27.00
2009,06,02,14,19,27.10
2009,06,02,14,20,27.20
2009,06,02,14,21,27.20
2009,06,02,14,22,27.30
2009,06,02,14,23,27.30
2009,06,02,14,24,27.30
2009,06,02,14,25,27.30
2009,06,02,14,26,27.20
2009,06,02,14,27,27.20
2009,06,02,14,28,27.20
2009,06,02,14,29,27.30
2009,06,02,14,30,27.30
2009,06,02,14,31,27.30
2009,06,02,14,32,27.40
2009,06,02,14,33,27.40
2009,06,02,14,34,27.40
2009,06,02,14,35,27.60
2009,06,02,14,36,27.60
2009,06,02,14,37,27.70
2009,06,02,14,38,27.90
2009,06,02,14,39,27.80
2009,06,02,14,40,27.70
2009,06,02,14,41,27.60
2009,06,02,14,42,27.60
2009,06,02,14,43,27.60
2009,06,02,14,44,27.60
2009,06,02,14,45,27.50
2009,06,02,14,46,27.40
2009,06,02,14,47,27.40
2009,06,02,14,48,27.40
2009,06,02,14,49,27.40
2009,06,02,14,50,27.50
2009,06,02,14,51,27.60
2009,06,02,14,52,27.60
2009,06,02,14,53,27.60
2009,06,02,14,54,27.70
2009,06,02,14,55,27.80
2009,06,02,14,56,27.90
2009,06,02,14,57,28.00
2009,06,02,14,58,28.00
2009,06,02,14,59,28.10
2009,06,02,15,00,28.10
2009,06,02,15,01,28.10
2009,06,02,15,02,28.10
2009,06,02,15,03,28.10
2009,06,02,15,04,28.10
2009,06,02,15,05,28.10
2009,06,02,15,06,28.00
2009,06,02,15,07,28.00
2009,06,02,15,08,28.00
2009,06,02,15,09,28.00
2009,06,02,15,10,28.00
2009,06,02,15,11,28.00
2009,06,02,15,12,28.10
2009,06,02,15,13,28.10
2009,06,02,15,14,28.30
2009,06,02,15,15,28.40
2009,06,02,15,16,28.60
2009,06,02,15,17,28.60
2009,06,02,15,18,28.60
2009,06,02,15,19,28.60
2009,06,02,15,20,28.60
2009,06,02,15,21,28.60
2009,06,02,15,22,28.50
2009,06,02,15,23,28.40
2009,06,02,15,24,28.30
2009,06,02,15,25,28.30
2009,06,02,15,26,28.30
2009,06,02,15,27,28.30
2009,06,02,15,28,28.40
2009,06,02,15,29,28.40
2009,06,02,15,30,28.50
2009,06,02,15,31,28.60
2009,06,02,15,32,28.70
2009,06,02,15,33,28.70
2009,06,02,15,34,28.60
2009,06,02,15,35,28.50
2009,06,02,15,36,28.30
2009,06,02,15,37,28.20
2009,06,02,15,38,28.20
2009,06,02,15,39,28.20
2009,06,02,15,40,28.20
2009,06,02,15,41,28.10
2009,06,02,15,42,28.00
2009,06,02,15,43,28.10
2009,06,02,15,44,28.20
2009,06,02,15,45,28.20
2009,06,02,15,46,28.20
2009,06,02,15,47,28.20
2009,06,02,15,48,28.20
2009,06,02,15,49,28.20
2009,06,02,15,50,28.30
2009,06,02,15,51,28.20
2009,06,02,15,52,28.30
2009,06,02,15,53,28.30
2009,06,02,15,54,28.30
2009,06,02,15,55,28.50
2009,06,02,15,56,28.70
2009,06,02,15,57,28.80
2009,06,02,15,58,28.90
2009,06,02,15,59,28.90
2009,06,02,16,00,28.90
2009,06,02,16,01,28.90
2009,06,02,16,02,28.90
2009,06,02,16,03,28.90
2009,06,02,16,04,28.90
2009,06,02,16,05,28.90
2009,06,02,16,06,28.90
2009,06,02,16,07,28.90
2009,06,02,16,08,28.90
2009,06,02,16,09,28.90
2009,06,02,16,10,28.90
2009,06,02,16,11,28.80
2009,06,02,16,12,28.70
2009,06,02,16,13,28.60
2009,06,02,16,14,28.60
2009,06,02,16,15,28.60
2009,06,02,16,16,28.50
2009,06,02,16,17,28.40
2009,06,02,16,18,28.30
2009,06,02,16,19,28.30
2009,06,02,16,20,28.30
2009,06,02,16,21,28.30
2009,06,02,16,22,28.30
2009,06,02,16,23,28.40
2009,06,02,16,24,28.40
2009,06,02,16,25,28.40
2009,06,02,16,26,28.50
2009,06,02,16,27,28.60
2009,06,02,16,28,28.60
2009,06,02,16,29,28.70
2009,06,02,16,30,28.60
2009,06,02,16,31,28.60
2009,06,02,16,32,28.70
2009,06,02,16,33,28.70
2009,06,02,16,34,28.80
2009,06,02,16,35,28.80
2009,06,02,16,36,28.90
2009,06,02,16,37,28.90
2009,06,02,16,38,28.90
2009,06,02,16,39,28.90
2009,06,02,16,40,29.00
2009,06,02,16,41,29.20
2009,06,02,16,42,29.30
2009,06,02,16,43,29.30
2009,06,02,16,44,29.20
2009,06,02,16,45,29.10
2009,06,02,16,46,29.00
2009,06,02,16,47,28.90
2009,06,02,16,48,28.90
2009,06,02,16,49,28.90
2009,06,02,16,50,29.00
2009,06,02,16,51,29.20
2009,06,02,16,52,29.30
2009,06,02,16,53,29.40
2009,06,02,16,54,29.50
2009,06,02,16,55,29.60
2009,06,02,16,56,29.70
2009,06,02,16,57,29.70
2009,06,02,16,58,29.80
2009,06,02,16,59,29.70
2009,06,02,17,00,29.60
2009,06,02,17,01,29.60
2009,06,02,17,02,29.50
2009,06,02,17,03,29.40
2009,06,02,17,04,29.20
2009,06,02,17,05,29.10
2009,06,02,17,06,29.10
2009,06,02,17,07,28.90
2009,06,02,17,08,28.90
2009,06,02,17,09,28.90
2009,06,02,17,10,29.10
2009,06,02,17,11,29.10
2009,06,02,17,12,29.10
2009,06,02,17,13,29.20
2009,06,02,17,14,29.20
2009,06,02,17,15,29.20
2009,06,02,17,16,29.20
2009,06,02,17,17,29.20
2009,06,02,17,18,29.20
2009,06,02,17,19,29.20